#timestamp,LO_Frequency,Hit 
1504886415.7,286047000.6,N
1504886435.5,286047000.2,N
1504886455.3,286047002.8,N
1504886475.2,286046997.2,N
1504886495.9,286046996.8,N
1504886515.7,286046995.4,N
1504886535.5,286046996.8,N
1504886555.4,286046995.8,N
1504886575.2,286046995.0,N
1504886595.0,286046993.4,N
1504886595.9,286046993.4,N
1504886615.8,286046996.1,N
1504886635.6,286046996.8,N
1504886655.4,286046999.0,N
1504886675.3,286046998.3,N
1504886695.1,286046993.3,N
1504886696.0,286046993.3,N
1504886715.8,286046995.3,N
1504886735.7,286046995.0,N
1504886755.5,286046991.8,P
1504886775.3,286046993.6,N
1504886795.2,286046994.2,N
1504886815.9,286046996.6,N
1504886835.7,286046998.7,N
1504886855.6,286046996.5,N
1504886875.4,286046998.3,N
1504886895.2,286047001.2,N
1504886915.1,286047000.8,N
1504886916.0,286047000.8,N
1504886935.8,286046999.2,N
1504886955.6,286046998.6,N
1504886975.4,286046998.3,N
1504886995.3,286046999.0,N
1504887015.1,286046998.7,N
1504887035.8,286046995.4,N
1504887055.7,286046992.4,N
1504887075.5,286046997.6,N
1504887095.3,286046998.4,N
1504887115.2,286047001.2,N
1504887135.9,286046998.1,N
1504887155.7,286046996.6,N
1504887175.6,286046995.0,N
1504887195.4,286046996.1,N
1504887215.2,286046992.9,N
1504887235.1,286046990.3,P
1504887236.0,286046990.3,N
1504887255.8,286046993.2,N
1504887275.6,286046992.8,N
1504887295.5,286046994.2,N
1504887315.3,286046994.6,N
1504887335.1,286046993.4,N
1504887355.9,286046994.9,N
1504887375.7,286046996.0,N
1504887395.5,286046999.4,N
1504887415.3,286047001.1,N
1504887435.2,286047000.1,N
1504887455.0,286046999.8,N
1504887455.9,286046999.8,N
1504887475.7,286047002.8,N
1504887495.6,286047001.5,N
1504887515.4,286047002.2,N
1504887535.2,286046996.6,N
1504887555.1,286046993.3,N
1504887556.0,286046993.3,N
1504887575.8,286046993.4,N
1504887595.6,286046994.6,N
1504887615.5,286046994.9,N
1504887635.3,286047000.8,N
1504887655.1,286047001.0,N
1504887675.9,286047000.4,N
1504887695.7,286047002.3,N
1504887715.5,286047000.4,N
1504887735.3,286046995.8,N
1504887755.2,286046991.8,N
1504887775.0,286046992.3,N
1504887775.9,286046992.3,N
1504887795.7,286046994.5,N
1504887815.6,286046992.4,N
1504887835.4,286046993.7,N
1504887855.2,286046995.6,N
1504887875.1,286046997.5,N
1504887876.0,286046997.5,N
1504887895.8,286046998.5,N
1504887915.6,286046995.2,N
1504887935.5,286046994.3,N
1504887955.3,286046992.7,N
1504887975.1,286046994.3,N
1504887995.9,286046990.1,N
1504888015.7,286046992.5,N
1504888035.5,286046992.5,N
1504888055.4,286046993.5,N
1504888075.2,286046993.0,N
1504888095.0,286046993.2,N
1504888095.9,286046993.2,N
1504888115.8,286046996.2,N
1504888135.6,286046996.2,N
1504888155.4,286046995.6,N
1504888175.2,286046998.3,N
1504888195.1,286046994.2,N
1504888196.0,286046994.2,N
1504888215.8,286046992.1,N
1504888235.6,286046996.4,N
1504888255.5,286046993.3,P
1504888275.3,286047002.7,P
1504888295.1,286047003.7,N
1504888315.9,286047007.2,N
1504888335.7,286047006.5,N
1504888355.5,286047001.9,N
1504888375.4,286046998.1,N
1504888395.3,286046998.6,N
1504888415.1,286047000.2,N
1504888416.0,286047000.2,N
1504888435.8,286047000.6,N
1504888455.7,286047004.1,N
1504888475.5,286047004.5,N
1504888495.4,286047006.7,N
1504888515.3,286047000.7,N
1504888535.1,286046998.4,N
1504888536.0,286046998.4,N
1504888555.8,286046996.9,N
1504888575.6,286046999.7,N
1504888595.5,286047002.9,N
1504888615.3,286047002.7,N
1504888635.1,286047005.1,N
1504888655.9,286047007.3,N
1504888675.7,286047003.4,N
1504888695.5,286046999.7,N
1504888715.4,286047004.3,N
1504888735.2,286047000.7,N
1504888755.0,286046997.0,N
1504888755.9,286046997.0,N
1504888775.8,286046998.8,N
1504888795.6,286047000.9,N
1504888815.4,286047000.8,N
1504888835.3,286046998.8,N
1504888855.1,286046997.1,N
1504888856.0,286046997.1,N
1504888875.8,286046994.9,N
1504888895.7,286046995.7,N
1504888915.5,286046997.4,N
1504888935.3,286046998.8,N
1504888955.1,286046996.8,N
1504888975.9,286046999.0,N
1504888995.7,286047000.0,N
1504889015.5,286046998.2,N
1504889035.4,286047000.7,N
1504889055.2,286046997.1,N
1504889075.0,286046995.7,N
1504889075.9,286046995.7,N
1504889095.8,286046995.2,N
1504889115.6,286046999.5,N
1504889135.4,286046997.0,N
1504889155.3,286047000.6,N
1504889175.1,286046999.6,N
1504889176.0,286046999.6,N
1504889195.8,286046998.5,N
1504889215.7,286046999.3,N
1504889235.5,286046999.1,N
1504889255.3,286046998.6,N
1504889275.2,286046999.0,N
1504889295.9,286046997.1,N
1504889315.7,286046995.3,N
1504889335.5,286046998.0,N
1504889355.4,286046999.6,N
1504889375.2,286046997.0,N
1504889395.0,286046999.5,N
1504889395.9,286046999.5,N
1504889415.8,286046998.8,N
1504889435.6,286046999.7,N
1504889455.4,286047002.3,N
1504889475.3,286046998.2,N
1504889495.1,286046998.4,N
1504889515.8,286046999.8,N
1504889535.7,286047000.9,N
1504889555.5,286047001.0,N
1504889575.3,286047000.5,N
1504889595.2,286047001.0,N
1504889615.9,286047000.2,N
1504889635.7,286047001.1,N
1504889655.6,286047000.9,N
1504889675.4,286047000.7,N
1504889695.2,286046999.6,N
1504889715.0,286046999.0,N
1504889716.0,286046999.0,N
1504889735.8,286046998.9,N
1504889755.6,286047000.3,N
1504889775.4,286047002.3,N
1504889795.3,286047001.0,N
1504889815.1,286046998.5,N
1504889835.8,286046999.0,N
1504889855.7,286046997.5,N
1504889875.5,286046998.4,N
1504889895.3,286047000.5,N
1504889915.2,286047000.4,N
1504889935.9,286047002.7,N
1504889955.7,286047002.4,N
1504889975.6,286047000.5,N
1504889995.4,286047000.6,N
